Regional Weather Roundup
Issued by NWS Cleveland, OH

Home | Current Version | Previous Version | Graphics & Text | Print | Product List | Glossary On
Versions: 1 2 3 4 5 6 7 8 9 10 11 12 13 14 15 16 17 18 19 20 21 22 23 24 25 26 27 28 29 30 31 32 33 34 35 36 37 38 39 40 41 42 43 44 45 46 47 48 49 50
000
ASUS41 KCLE 280810
RWRCLE
OHIO REGIONAL WEATHER ROUNDUP
NATIONAL WEATHER SERVICE CLEVELAND, OH
400 AM EDT TUE MAR 28 2017

NOTE: "FAIR" INDICATES FEW OR NO CLOUDS BELOW 12,000 FEET WITH NO
SIGNIFICANT WEATHER AND/OR OBSTRUCTIONS TO VISIBILITY.

OHZ001>008-015>018-024>027-034-035-043-044-280900-
   NORTHWEST OHIO

CITY           SKY/WX    TMP DP  RH WIND       PRES   REMARKS
DEFIANCE       CLOUDY    50  47  89 N8        29.88R
FINDLAY        RAIN      53  49  86 NE5       29.86R FOG
TOLEDO EXPRESS CLOUDY    51  48  89 N9        29.87S
TOLEDO EXEC    CLOUDY    49  48  97 NE7       29.88R FOG
LIMA           LGT RAIN  52  52 100 N7        29.85F FOG
$$

OHZ009>014-019>023-028>033-038-089-280900-
   NORTHEAST OHIO

CITY           SKY/WX    TMP DP  RH WIND       PRES   REMARKS
CLE-HOPKINS    LGT RAIN  53  47  79 N5        29.87F
CLE-LAKEFRONT  CLOUDY    51  46  83 CALM      29.84F
CUY CO. ARPT   NOT AVBL
LORAIN-ELYRIA  CLOUDY    50  46  86 N5        29.86F
ASHTABULA      CLOUDY    48  48 100 CALM      29.86F
AKRON-CANTON   LGT RAIN  52  49  89 E8        29.84F FOG
WOOSTER        LGT RAIN  52  50  93 NE6       29.85S
MANSFIELD      LGT RAIN  52  51  97 NE7       29.84F FOG
YOUNGSTOWN     LGT RAIN  51  48  89 CALM      29.87S FOG
$$

OHZ042-051>053-060>062-070>072-077>081-280900-
  SOUTHWEST OHIO

CITY           SKY/WX    TMP DP  RH WIND       PRES   REMARKS
CINC-COVINGTON CLOUDY    55  54  96 SW3       29.83S
CINC-LUNKEN    CLOUDY    56  56 100 CALM      29.83F
HAMILTON       CLOUDY    57  57 100 CALM      29.83F
DAYTON         LGT RAIN  55  55 100 CALM      29.83F FOG
WRIGHT-PAT AFB DRIZZLE   56  56 100 CALM      29.83F
DAYTON GENERAL CLOUDY    56  55  97 CALM      29.82F FOG
WILMINGTON     CLOUDY    55  54  96 SW7       29.82F
$$

OHZ036-037-039>041-045>050-054>059-063>069-073>076-082>088-280900-
  CENTRAL AND SOUTHEAST OHIO

CITY           SKY/WX    TMP DP  RH WIND       PRES   REMARKS
COLUMBUS       LGT RAIN  57  56  96 SW6       29.83S FOG
OSU AIRPORT    LGT RAIN  55  55 100 SW3       29.83R FOG
BOLTON FIELD   LGT RAIN  55  55 100 SW3       29.84F
RICKENBACK AFB CLOUDY    55  55 100 W3        29.83S
NEWARK         LGT RAIN  58  56  93 SW6       29.82S FOG
MARION         LGT RAIN  53  51  93 NW6       29.84S FOG
LANCASTER      CLOUDY    59  56  89 SW5       29.83F
ZANESVILLE     CLOUDY    57  52  83 S8        29.83S
NEW PHILLY     NOT AVBL
$$




USA.gov is the U.S. government's official web portal to all federal, state and local government web resources and services.